sat.trackr.live / text

‹ back to catalog

STARLINK-36878

NORAD 67899 · 2026-035W

PAYLOAD ACTIVE UNKNOWN

§ Identity

Operator
Country
US
Launch date
2026-02-21
Launch site
AFWTR
Launch vehicle
Mass (kg)
RCS (m²)

Purposes: comms

External: N2YO · Heavens-Above · Gunter

§ Orbital elements

Epoch: 2026-05-24T18:41:12.756768Z

Period
93.91 min
Inclination
97.2850°
Eccentricity
0.0001461
Mean motion
15.33457065 rev/d
Perigee alt
464.5 km
Apogee alt
466.5 km
Semi-major
6,843.6 km
B*
6.2440e-4
RAAN
78.3828°
Arg perigee
68.8403°
Mean anomaly
291.2995°
Rev number
1,565

§ Raw data

STARLINK-368781 67899U 26035W   26144.77861987  .00020145  00000+0  62440-3 0  99952 67899  97.2850  78.3828 0001461  68.8403 291.2995 15.33457065 15652

JSON: /api/v1/satellites/67899 · /tle

For live sub-satellite position, see the globe view (requires WebGL).

§ Visibility from observer

Set your observer location to see the next 7 days of passes ≥ 10°. The values pass through the URL so the page stays shareable.

No JS? Fill the form by hand. The geolocation button needs JavaScript.